Location: El Azufral
(10.3513°N, 67.1528°W)
Time: 19:38:48
(UTC+00:00)

Cosmos 1340 - Pass Details

Date: 13 June 2024
Orbit: 426 x 429 km, 81.2° (Epoch: 24 July)

Event Time Altitude Azimuth Distance (km) Brightness Sun altitude
Rises 23:41:39 0° 1° (N) 2,381 6.4 -12.2°
Reaches altitude 10° 23:43:43 10° 6° (N) 1,514 5.3 -12.6°
Maximum altitude 23:46:57 54° 84° (E) 523 2.4 -13.3°
Enters shadow 23:49:07 19° 157° (SSE) 1,090 3.9 -13.8°
